Weather observations for the past three days for
Mount Ida
Imperial (Metric)
Date Time (cdt) Wind (mph) Vis. (mi.) Weather Sky Cond. Temperature (ºF) Relative Humidity Wind Chill (°F) Heat Index (°F) Pressure Precipitation (in)
Air Dwpt 6 hour altimeter (in) sea level (mb) 1 hr 3 hr 6 hr
Max. Min.
21 08:53 Calm 10.00 A Few Clouds FEW120 73 66 79% 30.07 1017.2
21 07:53 Calm 10.00 Fair CLR 71.1 66 84% 30.05 1016.7
21 06:53 Calm 8.00 Fair CLR 66 64 68 64.9 93% 30.04 1016.2
21 05:53 Calm 10.00 Fair CLR 66 63 90% 30.03 1015.9
21 04:53 Calm 7.00 Fair CLR 66 63 90% 30.02 1015.6
21 02:53 Calm 8.00 Fair CLR 66 64 93% 30.04 1016.0
21 01:53 Calm 8.00 Fair CLR 66.9 64 91% 30.05 1016.3
21 00:53 Calm 10.00 Fair CLR 68 64.9 84 68 90% 30.05 1016.6
20 23:53 Calm 10.00 Fair CLR 69.1 66 90% 30.06 1016.8
20 22:53 Calm 10.00 Fair CLR 71.1 64.9 81% 30.05 1016.6
20 20:53 Calm 10.00 Fair CLR 73.9 66.9 79% 30.03 1016.1
20 19:53 Calm 10.00 A Few Clouds FEW065 77 66 69% 79 30.02 1015.7
20 18:53 Calm 10.00 Fair CLR 84 64 89.1 82.9 51% 85 30.01 1015.4
20 17:53 Calm 10.00 Fair CLR 84.9 62.1 46% 85 30.02 1015.5
20 16:53 Vrbl 7 10.00 A Few Clouds FEW065 86 61 43% 86 30.02 1015.7
20 15:53 Calm 10.00 A Few Clouds FEW060 87.1 60.1 40% 87 30.03 1015.9
20 14:53 Vrbl 3 10.00 A Few Clouds FEW060 87.1 60.1 40% 87 30.05 1016.4
20 13:53 Vrbl 5 10.00 A Few Clouds FEW055 87.1 60.1 40% 87 30.06 1017.0
20 12:53 Vrbl 6 10.00 A Few Clouds FEW050 84.9 60.1 84.9 60.1 43% 85 30.08 1017.5
20 11:53 NW 5 10.00 Fair CLR 82.9 60.1 46% 83 30.1 1018.2
20 10:53 N 5 10.00 Fair CLR 80.1 57 45% 80 30.09 1018.1
20 06:53 Calm 6.00 Fog/Mist CLR 60.1 57.9 64 60.1 93% 30.06 1017.1
20 05:53 Calm 8.00 Fair CLR 60.1 57 90% 30.07 1017.4
20 04:53 Calm 8.00 Fair CLR 60.1 57 90% 30.06 1017.0
20 03:53 Calm 9.00 Fair CLR 61 57.9 90% 30.05 1016.6
20 02:53 Calm 9.00 Fair CLR 61 59 93% 30.04 1016.1
20 01:53 Calm 10.00 Fair CLR 63 60.1 90% 30.04 1016.3
20 00:53 Calm 10.00 Fair CLR 64 61 82.9 64 90% 30.05 1016.5
19 23:53 Calm 10.00 Fair CLR 64 61 90% 30.07 1017.2
19 22:53 Calm 10.00 Fair CLR 66 62.1 87% 30.07 1017.1
19 21:53 Calm 10.00 Fair CLR 68 62.1 81% 30.05 1016.7
19 20:53 Calm 10.00 Fair CLR 72 61 68% 30.04 1016.2
19 19:53 Calm 10.00 Fair CLR 79 59 50% 80 30.03 1016.1
19 18:53 Calm 10.00 Fair CLR 82.9 57.9 87.1 82.9 43% 83 30.03 1015.8
19 16:53 Vrbl 5 10.00 Fair CLR 84.9 55.9 37% 84 30.03 1015.9
19 15:53 Calm 10.00 Fair CLR 84.9 55.9 37% 84 30.03 1016.0
19 14:53 Vrbl 5 10.00 A Few Clouds FEW060 86 57 37% 85 30.05 1016.4
19 13:53 Calm 10.00 Fair CLR 84.9 55.9 37% 84 30.07 1017.1
19 12:53 Vrbl 6 10.00 Fair CLR 84 55.9 84 63 38% 83 30.09 1017.9
19 11:53 Vrbl 3 10.00 Mostly Cloudy SCT042 BKN050 82 61 49% 83 30.1 1018.3
19 10:53 Vrbl 3 10.00 A Few Clouds FEW035 79 61 54% 80 30.11 1018.7
19 09:53 E 5 10.00 Fair CLR 77 63 62% 79 30.11 1018.8
19 08:53 Calm 10.00 Fair CLR 72 64 76% 30.11 1018.8
19 07:53 Calm 10.00 Fair CLR 66.9 64 91% 30.11 1018.7
19 06:53 Calm 4.00 Fog/Mist CLR 63 60.1 68 63 90% 30.1 1018.2
19 05:53 Calm 5.00 Fog/Mist CLR 63 61 93% 30.08 1017.7
19 04:53 Calm 5.00 Fog/Mist CLR 64 61 90% 30.08 1017.7
19 02:53 Calm 5.00 Fog/Mist CLR 66 63 90% 30.08 1017.6
19 01:53 Calm 6.00 Fog/Mist CLR 66.9 64 91% 30.08 1017.6
19 00:53 Calm 6.00 Fog/Mist CLR 68 64.9 84 68 90% 30.09 1017.8
18 23:53 Calm 8.00 Fair CLR 69.1 66 90% 30.08 1017.8
18 22:53 Calm 10.00 Fair CLR 70 66 87% 30.08 1017.5
18 21:53 Calm 10.00 Fair CLR 71.1 66.9 87% 30.06 1017.0
18 19:53 Calm 10.00 Fair CLR 80.1 64.9 60% 82 30.03 1015.6
18 18:53 Calm 10.00 Fair CLR 84 64 87.1 81 51% 85 30.03 1015.5
18 17:53 Vrbl 3 10.00 Fair CLR 86 64.9 49% 88 30.02 1015.2
18 16:53 Calm 10.00 Partly Cloudy SCT045 SCT055 86 66 51% 88 30.04 1015.8
18 15:53 Calm 10.00 Mostly Cloudy BKN060 84 66 55% 86 30.05 1016.2
18 14:53 Vrbl 3 10.00 Mostly Cloudy BKN038 BKN060 84.9 66 53% 87 30.07 1017.0
18 13:53 Calm 10.00 Fair CLR 82.9 66.9 59% 86 30.08 1017.2
18 12:53 Vrbl 5 10.00 Mostly Cloudy SCT028 BKN042 BKN100 81 68 81 73.9 65% 84 30.1 1017.9 0.11
18 11:53 Calm 10.00 Mostly Cloudy FEW036 SCT047 BKN065 78.1 68 71% 80 30.1 1018.0
18 10:53 Calm 10.00 Overcast BKN031 OVC041 75 68 79% 76 30.1 1018.1 0.01
18 09:53 Calm 10.00 Overcast OVC022 75 70 84% 75 30.1 1018.0 0.01 0.1
Date Time (cdt) Wind (mph) Vis. (mi.) Weather Sky Cond. Air Dwpt Max. Min. Relative Humidity Wind Chill (°F) Heat Index (°F) altimeter (in) sea level (mb) 1 hr 3 hr 6 hr
6 hour
Temperature (ºF) Pressure Precipitation (in)